Bremerton, WA

6:54 AM PDT on October 23, 2019 (GMT -0700)
Bremerton National

Weather History for KPWT - August, 2019

Change the Weather History Date:

Friday, August 16, 2019

  Actual Average Record
Temperature  
Mean Temperature 62 °F -  
Max Temperature 68 °F 73 °F 91 °F (2010)
Min Temperature 57 °F 50 °F 42 °F (2006)
Degree Days  
Heating Degree Days 4    
Growing Degree Days 12 (Base 50)    
Moisture  
Dew Point 55 °F    
Average Humidity 82    
Maximum Humidity 94    
Minimum Humidity 70    
Precipitation  
Precipitation 0.00 in - - ()
Sea Level Pressure  
Sea Level Pressure 30.14 in    
Wind  
Wind Speed 4 mph (SSW)    
Max Wind Speed 8 mph    
Max Gust Speed -    
Visibility 10 miles    
Events      
Averages and records for this station are not official NWS values.
T = Trace of Precipitation, MM = Missing Value Source: NWS Daily Summary

Daily Weather History Graph

Daily Weather History Graph

Search for Another Location

Airport or City:

Astronomy

Aug. 16, 2019 Rise Set
Actual Time 6:08 AM PDT 8:21 PM PDT
Civil Twilight 5:34 AM PDT 8:54 PM PDT
Nautical Twilight 4:52 AM PDT 9:36 PM PDT
Astronomical Twilight 4:05 AM PDT 10:23 PM PDT
Moon 9:20 PM PDT (8/16) 7:05 AM PDT (8/16)
Length of Visible Light 15h 20m
Length of Day
14h 13m
Full, 99% of the Moon is Illuminated
Aug 16
Full
Aug 23
Last Quarter
Aug 30
New
Sep 5
First Quarter
Sep 13
Full

Hourly Weather History & Observations

Time (PDT) Temp. Dew Point Humidity Pressure Visibility Wind Dir Wind Speed Gust Speed Precip Events Conditions
12:49 AM 57.2 °F 55.4 °F 94% 30.13 in 10.0 mi SSW 4.6 mph - N/A   Scattered Clouds
12:56 AM 57.0 °F 55.0 °F 93% 30.18 in 10.0 mi SSW 4.6 mph - N/A   Mostly Cloudy
1:56 AM 57.9 °F 55.9 °F 93% 30.18 in 10.0 mi SSW 4.6 mph - N/A   Overcast
2:56 AM 57.9 °F 55.0 °F 90% 30.17 in 10.0 mi SW 3.5 mph - N/A   Overcast
3:56 AM 57.9 °F 55.0 °F 90% 30.17 in 10.0 mi South 5.8 mph - N/A   Overcast
4:56 AM 57.0 °F 55.0 °F 93% 30.17 in 10.0 mi Calm Calm - N/A   Overcast
5:56 AM 57.9 °F 54.0 °F 87% 30.17 in 10.0 mi Variable 3.5 mph - N/A   Overcast
6:56 AM 57.9 °F 54.0 °F 87% 30.18 in 10.0 mi Calm Calm - N/A   Overcast
7:19 AM 57.2 °F 53.6 °F 88% 30.14 in 10.0 mi SW 3.5 mph - N/A   Overcast
7:56 AM 57.9 °F 55.0 °F 90% 30.19 in 10.0 mi WSW 5.8 mph - N/A   Overcast
8:42 AM 59.0 °F 55.4 °F 88% - 10.0 mi SSW 4.6 mph - N/A   Overcast
8:56 AM 59.0 °F 54.0 °F 83% - 10.0 mi WSW 3.5 mph - N/A   Overcast
9:26 AM 60.8 °F 55.4 °F 82% 30.14 in 10.0 mi Variable 3.5 mph - N/A   Overcast
9:56 AM 60.1 °F 54.0 °F 80% 30.19 in 10.0 mi SSE 4.6 mph - N/A   Overcast
10:15 AM 60.8 °F 55.4 °F 82% 30.14 in 10.0 mi SSE 6.9 mph - N/A   Overcast
10:56 AM 60.1 °F 55.0 °F 83% 30.19 in 10.0 mi SSE 5.8 mph - N/A   Overcast
11:56 AM 62.1 °F 55.9 °F 80% 30.18 in 10.0 mi Variable 4.6 mph - N/A   Overcast
12:56 PM 64.0 °F 57.0 °F 78% 30.17 in 10.0 mi Variable 3.5 mph - N/A   Overcast
2:56 PM 66.0 °F 55.9 °F 70% 30.15 in 10.0 mi SSW 8.1 mph - N/A   Overcast
3:56 PM 66.0 °F 57.0 °F 73% 30.13 in 10.0 mi South 8.1 mph - N/A   Overcast
4:56 PM 64.9 °F 57.0 °F 75% 30.13 in 10.0 mi South 5.8 mph - N/A   Overcast
5:56 PM 64.9 °F 55.9 °F 73% 30.11 in 10.0 mi South 5.8 mph - N/A   Overcast
6:56 PM 64.9 °F 55.0 °F 70% 30.10 in 10.0 mi South 6.9 mph - N/A   Overcast
7:13 PM 64.4 °F 55.4 °F 73% 30.05 in 10.0 mi South 4.6 mph - N/A   Overcast
7:56 PM 64.0 °F 55.0 °F 73% 30.09 in 10.0 mi South 5.8 mph - N/A   Overcast
8:56 PM 63.0 °F 55.0 °F 75% 30.09 in 10.0 mi South 4.6 mph - N/A   Overcast
9:56 PM 62.1 °F 55.9 °F 80% 30.09 in 10.0 mi South 4.6 mph - N/A   Overcast
10:56 PM 61.0 °F 55.0 °F 81% 30.08 in 10.0 mi South 4.6 mph - N/A   Overcast
11:56 PM 60.1 °F 55.0 °F 83% - 10.0 mi SSW 3.5 mph - N/A   Clear